Find Starlink 2420

NORAD ID: 47831 Int'l Des: 2021-018 Owner: SPXS Country: US Constellation: starlink operational
LEOCIRCULARSTARLINK_TYPE

Live Position

Loading 3D Globe...

About Starlink 2420

Description loading...

Upcoming Passes

Passes for default location (London). Set your location on the main map for personalized predictions.

Altitude History

Loading altitude history...

Two-Line Element Set

1 47831U 21018AW 26106.33336806 .00079317 00000-0 37012-2 0 9994
2 47831 53.1069 67.2922 0002098 43.5209 21.3868 15.19159170 5696
Epoch: Apr 16, 2026 • Age: 5 hours

Current Status

Altitude 513.7 km
Velocity 7.61 km/s
Sub-Earth Point 51.43°N, 138.7°E
Launch Date Mar 11, 2021
Age 5 years
Type internet

Technical Details

Classification Payload
Mass 260.00 kg
Dry Mass 248.00 kg
Total Mass 260.00 kg
Length 0.20 m
Diameter 2.80 m
Span 9.00 m
Shape Box + pan
Manufacturer SPXS
Bus Type Starlink
Phase Status In Orbit
Owner/State SPXS/US

Most Searched